User: anonymous   Login
Location: Heiligenberg
(48.5381°N, 7.3897°E)
Time: 01:01:01
(UTC+00:00)
Language:

Cosmos 1867 - Orbit

View from above orbital plane
View from above orbital plane
View from above satellite
View from above satellite

Ground track
Ground track

The orbit data is extracted from the following two-line orbital elements,

1 18187U 87060A   22225.58637884 -.00000053  00000-0  17840-4 0  9991
2 18187  65.0124 357.7263 0016749 257.5198 102.4012 14.31150830833282
Epoch (UTC): 13 August 2022 14:04:23
Eccentricity: 0.0016749
inclination: 65.0124°
perigee height: 776 km
apogee height: 800 km
right ascension of ascending node: 357.7263°
argument of perigee: 257.5198°
revolutions per day: 14.31150830
mean anomaly at epoch: 102.4012°
orbit number at epoch: 83328

The dashed part of the orbit path shows where the satellite is in the earth's shadow,  

DLR